Wind_Speed
17 17 17 16 16 16 16 15 15 15 14 14 14 15 15 15 16 16 16 16 16 16 16 17 17 16 16 17 18 17 17 17 18 20 19 16 19 24 25 25 25 25 26 26 25 24 22 19 16 13 11 9 9 10 10 12 12 12 11 7 5 6 5 3 6 3 6 7 7 8 9 9 9 9 10 11 11 12 12 11 8 8 13 16 13 12 15 17
18 18 18 17 17 17 17 16 15 15 14 14 14 14 14 14 14 15 15 15 16 16 15 16 16 16 15 16 17 17 16 17 18 18 16 15 18 20 21 23 24 24 26 26 25 24 22 19 15 12 11 11 11 12 12 11 11 11 10 8 8 7 6 5 6 1 4 6 7 8 7 8 9 8 11 12 11 11 12 12 10 13 18 17 11 11 13 16
18 18 18 18 18 18 18 17 16 15 15 15 15 14 14 14 13 13 14 14 15 15 15 15 15 16 15 15 15 16 14 14 16 14 14 15 16 17 18 20 22 23 24 25 25 24 22 16 12 11 12 13 13 13 12 10 11 10 9 8 8 7 9 7 1 1 4 8 7 7 7 8 9 8 11 12 10 10 12 13 13 19 20 16 12 13 13 15
19 19 19 19 19 19 19 18 17 16 16 15 15 15 15 14 13 13 13 13 14 14 14 14 14 15 15 14 14 15 13 10 11 12 12 13 14 15 17 17 19 21 22 23 24 23 20 14 11 13 14 14 13 13 13 11 9 7 10 9 7 8 7 3 4 1 3 8 7 7 8 8 8 7 9 11 10 10 11 12 15 20 19 14 13 14 14 15
20 20 20 19 19 19 19 19 18 18 17 16 16 16 15 15 14 13 13 13 13 13 13 14 13 13 14 13 13 13 9 5 5 11 11 10 12 13 15 16 17 19 20 22 23 21 19 16 14 15 15 16 14 13 13 12 10 8 12 11 7 5 3 3 4 3 3 7 7 7 7 8 9 8 8 10 8 8 12 13 16 18 15 12 12 14 15 15
21 21 21 20 20 20 20 20 19 19 18 17 17 16 16 16 15 14 14 13 13 13 13 13 12 12 12 12 12 12 9 4 4 11 12 10 12 14 15 16 16 18 20 22 24 22 20 18 16 17 17 17 15 15 14 12 12 11 12 10 6 5 2 4 3 5 3 6 7 6 8 8 8 7 8 9 5 7 13 14 17 18 15 11 12 13 14 15
22 22 22 22 21 21 21 21 20 20 19 19 18 17 17 16 16 15 15 15 14 13 13 13 13 12 12 12 11 12 14 10 8 14 16 13 12 14 15 16 16 17 20 22 24 23 21 20 19 19 18 18 16 16 15 13 13 13 11 10 9 8 6 2 4 4 3 6 7 7 8 8 8 8 9 8 5 9 15 15 17 17 14 11 11 13 14 15
22 22 22 22 22 22 22 21 21 20 20 20 19 19 18 17 17 16 16 16 15 14 14 13 13 12 12 12 11 13 12 8 12 18 20 17 13 13 14 16 16 18 20 21 23 23 21 20 20 20 19 19 17 15 15 14 14 15 14 12 10 7 7 8 6 6 5 6 7 8 8 7 8 8 9 9 8 11 15 17 17 14 14 13 11 12 14 15
22 21 21 22 22 23 23 23 22 21 21 20 20 20 19 18 18 17 17 17 16 15 15 14 13 13 13 12 12 12 5 4 15 21 21 19 14 13 14 15 17 18 19 21 21 22 21 20 21 20 20 19 18 17 15 16 16 15 14 12 12 11 9 9 8 8 6 6 9 9 9 8 8 8 9 12 11 12 15 17 17 13 14 14 12 13 14 14
21 21 21 21 22 23 23 23 23 22 22 21 21 20 20 19 18 18 18 18 17 16 16 16 14 15 14 13 14 12 5 6 14 18 20 19 13 13 14 15 18 18 19 21 21 23 22 20 19 19 20 20 19 19 17 19 18 16 16 14 13 13 12 10 10 10 7 8 10 10 10 9 8 8 10 14 13 13 16 18 17 14 14 13 13 16 14 15
21 21 21 21 22 22 23 23 23 23 23 22 22 21 20 20 19 19 19 19 19 18 18 17 16 17 16 16 16 12 9 7 8 13 17 18 12 12 13 14 17 18 19 20 21 22 22 21 18 16 19 21 20 19 19 20 20 18 19 16 12 11 12 13 11 10 8 9 11 11 11 10 10 9 10 15 14 15 17 18 18 16 15 16 16 17 16 16
20 21 21 21 22 22 22 23 23 23 23 23 23 22 21 21 20 20 20 20 19 19 19 18 18 18 18 20 15 9 11 10 10 12 15 19 15 11 14 14 15 17 18 19 20 20 21 21 19 18 19 18 19 20 19 18 20 21 18 16 14 13 13 15 14 12 10 10 12 12 12 12 13 8 10 17 15 16 18 17 19 17 18 18 18 19 16 16
20 20 20 21 21 21 22 22 22 23 23 24 24 23 23 22 21 21 20 21 20 20 20 20 21 20 22 22 12 9 15 15 15 14 14 20 18 12 14 16 16 17 18 19 19 17 18 19 19 21 20 18 20 19 18 16 16 19 18 16 16 17 16 15 15 15 12 12 13 14 13 13 15 9 11 19 16 17 20 18 20 19 20 19 18 20 16 16
20 20 20 20 21 21 21 21 21 22 22 23 23 24 24 23 23 22 22 21 21 21 21 22 22 23 25 21 13 13 17 15 16 16 15 19 20 16 15 16 18 17 18 20 19 17 16 17 19 21 22 23 21 18 19 19 16 16 18 18 17 18 16 14 16 16 14 13 14 15 13 12 15 12 13 20 16 18 20 19 20 20 21 19 19 20 15 16
20 20 20 21 21 21 21 21 20 21 22 22 23 23 23 24 23 23 23 22 22 22 21 23 23 25 27 23 16 15 16 16 16 15 16 19 20 18 15 15 16 17 18 19 20 20 18 16 19 22 23 23 22 21 21 20 19 17 18 20 19 18 16 13 15 16 14 14 15 16 14 11 14 13 15 20 16 18 21 20 21 21 21 20 20 19 15 16
21 20 21 21 21 21 21 21 20 20 20 21 22 22 22 23 23 23 24 23 23 23 22 23 24 25 25 22 17 13 13 16 15 15 17 18 19 16 12 13 15 16 17 17 19 20 21 19 19 22 22 21 23 24 22 21 22 21 19 20 19 19 16 13 15 17 16 14 14 17 16 10 12 15 17 20 17 18 21 21 21 21 21 21 20 19 15 14
22 21 21 21 21 22 22 21 21 21 19 20 21 19 21 22 22 23 24 24 24 23 23 24 24 25 21 19 20 15 12 15 13 13 16 16 16 13 11 14 16 16 16 17 18 18 19 20 19 20 22 23 24 24 23 23 22 20 20 20 19 19 16 12 13 16 18 16 15 17 18 11 11 18 21 21 19 19 21 21 21 21 22 22 20 20 18 15
22 22 21 21 21 22 22 21 22 21 20 20 20 18 18 21 23 22 23 24 24 24 24 23 24 24 14 10 17 14 7 13 14 11 13 13 13 15 13 15 16 16 16 17 19 19 18 20 20 21 23 26 26 26 28 26 21 18 20 20 19 18 16 13 13 15 18 18 16 17 19 13 10 17 22 22 20 19 21 21 22 22 22 23 22 22 21 18
22 22 21 21 22 22 23 22 22 22 20 19 21 20 18 20 21 20 23 25 24 24 22 18 22 24 12 2 8 7 3 15 18 10 10 10 11 15 16 16 17 17 18 19 20 22 21 21 23 25 27 29 29 30 30 27 22 20 20 21 21 19 18 16 15 16 17 18 18 18 18 15 12 15 21 22 20 20 21 21 22 22 23 24 23 23 24 21
23 22 21 21 21 22 23 23 22 22 22 20 20 19 20 22 18 18 25 25 22 23 20 19 24 27 21 9 3 5 9 17 16 10 10 11 10 13 15 17 18 18 21 21 21 22 22 23 27 30 30 28 29 31 30 27 25 24 22 22 23 22 19 17 17 18 18 18 20 19 18 17 16 16 19 19 20 21 21 21 22 23 23 25 24 24 25 23
24 23 23 22 21 22 23 23 22 22 22 21 20 19 21 23 18 19 27 26 23 24 23 23 28 30 26 19 12 11 13 16 16 13 14 13 12 14 16 19 20 22 24 22 20 21 23 27 30 30 29 27 27 29 30 28 27 28 26 24 23 22 18 16 17 19 19 18 19 21 20 20 19 18 20 20 20 22 22 22 23 23 24 24 25 24 25 25
26 24 24 23 22 22 23 22 22 22 22 22 21 19 22 22 20 22 27 28 25 23 25 23 27 32 28 23 23 21 17 19 20 18 17 16 17 17 17 21 23 23 23 22 22 22 26 31 31 28 27 27 27 28 30 30 29 29 29 27 24 21 19 18 18 19 20 20 18 20 21 21 21 21 21 21 21 22 22 23 22 23 24 24 24 24 24 24
27 26 25 24 22 23 23 22 22 22 21 22 21 20 23 22 21 24 26 30 27 21 25 26 25 29 28 25 25 26 26 25 22 20 18 18 20 19 18 21 23 23 23 25 27 27 28 30 29 27 26 27 29 29 30 31 31 30 29 28 26 22 20 19 19 21 22 21 18 18 21 21 21 22 22 22 22 22 22 23 23 23 24 24 24 23 23 25
28 28 26 25 23 22 23 23 21 22 22 21 22 22 22 22 22 24 25 31 32 21 18 22 24 26 25 24 22 26 31 30 26 23 22 21 21 21 20 21 22 24 25 26 28 30 28 24 23 26 28 28 30 31 30 31 31 32 32 30 27 24 22 19 18 21 23 23 20 18 19 21 22 22 24 24 23 23 22 23 24 24 24 24 24 22 23 25
27 28 27 26 25 22 23 23 20 21 22 20 22 22 20 21 21 23 25 29 33 25 16 18 23 23 20 20 23 26 28 29 30 27 24 25 24 23 22 22 23 25 26 26 27 31 30 24 21 25 29 30 30 32 33 31 30 32 33 32 30 26 23 19 18 19 20 22 21 18 15 17 22 24 23 24 25 25 25 25 26 25 25 25 24 24 25 24
27 28 28 27 26 23 22 23 20 19 20 21 22 20 18 18 17 20 23 24 30 29 20 20 20 18 18 21 24 23 23 28 32 29 26 27 26 24 23 22 23 24 24 25 26 29 30 26 24 25 28 31 32 33 33 32 31 31 30 31 31 30 26 20 20 22 22 21 21 20 17 15 19 23 24 24 26 27 27 26 27 27 27 27 25 25 26 24
28 29 29 26 27 26 22 21 21 19 20 23 21 17 16 15 13 16 16 14 19 18 13 18 16 16 17 19 23 26 22 21 25 30 28 29 29 26 25 24 23 24 22 22 26 27 26 27 28 27 27 30 34 35 33 33 34 31 28 27 29 32 31 25 24 26 25 22 22 24 23 20 20 21 24 25 27 29 29 28 28 28 28 28 26 26 26 25
29 29 30 26 26 28 23 21 21 19 21 22 19 17 16 14 12 10 8 6 6 3 10 17 17 19 17 18 25 30 23 11 16 27 26 28 31 28 28 27 24 23 22 23 27 25 23 26 29 28 27 30 33 34 32 32 35 31 26 25 27 29 30 29 28 27 26 23 24 26 24 19 19 20 21 24 28 30 32 32 31 30 29 29 28 26 26 25
30 30 31 28 26 28 25 22 22 20 20 20 18 17 15 11 10 7 5 8 8 6 11 14 16 19 19 21 25 28 25 16 14 18 19 27 32 30 29 28 25 24 23 25 27 24 22 24 27 28 29 30 30 31 31 32 33 31 25 24 26 27 29 31 28 27 27 22 21 25 24 16 15 21 24 23 27 30 32 34 33 32 31 30 29 28 26 26
31 30 31 29 26 27 25 23 24 22 19 18 17 16 14 11 9 8 9 11 10 9 12 16 16 16 17 23 24 24 26 22 16 13 17 26 32 30 27 24 25 25 24 26 28 27 24 22 24 28 30 29 27 27 30 31 30 29 27 27 27 27 29 30 30 31 26 18 20 26 26 21 14 19 27 26 27 28 29 33 33 32 33 32 30 29 28 28
30 30 31 30 28 27 24 22 26 23 17 16 15 14 14 12 12 12 11 12 12 10 10 15 15 17 20 24 25 25 27 24 19 18 21 26 30 30 27 24 25 26 26 27 28 28 28 26 25 27 29 28 26 26 28 29 30 30 28 27 26 25 26 25 27 29 18 13 22 29 29 27 19 19 25 26 27 28 28 31 32 32 33 33 30 28 29 30
30 30 30 30 29 28 23 22 25 22 17 15 13 15 15 12 17 22 16 9 10 13 16 15 15 20 24 24 24 25 28 27 23 22 24 28 31 32 32 30 28 27 26 27 26 26 30 32 28 23 26 29 27 27 29 29 30 31 29 27 23 18 17 16 16 18 15 17 26 29 28 27 25 26 26 25 26 28 29 28 29 31 32 32 30 29 33 34
30 30 28 29 30 28 23 23 23 21 19 15 13 17 16 12 20 27 25 18 10 7 10 13 16 20 23 25 26 24 28 29 27 26 26 28 30 31 33 33 30 27 25 24 25 25 26 30 32 27 24 29 30 29 30 30 30 32 32 30 23 13 9 10 10 12 14 20 26 28 26 24 27 29 29 28 27 25 27 28 27 29 30 32 33 32 33 31
30 30 28 27 28 27 24 23 23 21 19 16 16 19 19 22 25 23 24 28 22 13 9 8 12 18 23 25 25 25 28 29 28 28 27 28 30 31 32 34 33 29 25 23 25 26 22 22 32 33 25 26 31 32 29 27 29 33 34 32 29 23 14 10 11 11 13 17 22 25 24 21 24 24 24 28 28 25 25 27 27 27 30 31 31 31 30 27
30 30 29 27 26 27 25 22 22 21 19 17 19 22 27 32 28 21 22 24 25 25 23 17 14 18 23 25 25 26 28 27 29 31 30 31 32 32 32 34 36 34 28 24 23 25 25 22 26 32 29 26 30 33 30 26 27 31 34 35 35 32 26 19 16 17 20 18 18 22 24 25 25 22 18 20 24 27 26 25 26 28 29 30 30 30 28 26
31 30 29 26 25 25 23 21 20 21 21 19 22 30 39 37 24 19 19 18 20 24 25 25 23 22 24 25 26 28 29 28 28 31 33 33 33 33 32 32 35 37 33 28 22 21 23 23 22 27 31 31 29 29 31 31 28 26 31 37 35 31 31 27 19 21 22 15 15 22 24 24 24 23 23 21 20 26 28 27 27 27 28 30 33 32 28 25
32 31 28 24 26 24 21 20 18 20 22 22 29 38 40 35 27 24 20 17 18 20 22 26 26 25 25 25 26 28 30 29 29 30 31 32 34 34 34 31 32 37 37 31 25 22 20 20 21 26 30 32 30 27 29 34 32 28 29 33 32 30 32 31 19 15 16 11 13 23 23 22 22 20 23 27 23 23 27 28 27 26 28 30 33 34 30 25
33 33 26 20 23 21 18 19 18 20 23 25 36 43 38 31 29 27 26 24 23 21 23 26 25 25 27 26 27 27 29 31 31 31 29 29 32 33 34 33 31 34 38 34 29 25 21 19 19 24 27 29 30 28 28 33 38 37 30 27 30 29 29 31 21 12 12 10 10 19 23 25 28 22 20 27 27 23 25 29 28 26 28 29 32 35 31 26
33 33 23 12 12 11 11 15 15 18 24 28 36 40 37 34 32 28 27 28 28 27 28 28 25 25 27 28 28 27 29 32 32 31 30 29 28 29 33 34 31 32 35 37 34 28 22 20 18 20 24 26 30 33 33 33 35 39 36 30 31 29 26 30 26 17 14 10 9 15 18 21 28 27 23 25 28 27 25 27 29 27 28 28 31 35 32 27
31 30 23 10 7 11 13 13 14 19 25 32 36 34 31 30 30 29 27 28 32 30 27 27 26 26 28 27 28 29 29 32 33 33 31 29 27 26 30 33 32 31 32 35 36 32 26 22 19 18 21 26 32 36 36 32 29 34 38 36 32 30 28 29 29 29 24 12 7 10 12 18 26 26 26 24 26 30 27 27 29 29 28 29 31 33 34 32
29 27 20 6 5 17 17 14 17 22 27 32 35 34 31 29 27 27 26 27 34 35 31 28 27 28 29 28 27 29 29 30 32 33 32 31 29 27 27 30 32 31 31 34 36 34 29 24 21 21 23 28 33 33 32 30 27 29 34 38 35 30 28 22 20 29 31 21 15 11 9 18 25 24 26 24 21 27 27 27 31 30 30 32 31 32 37 37
28 27 18 3 10 15 17 19 22 23 28 32 31 30 30 30 30 30 28 27 31 35 36 34 32 29 30 30 28 28 29 30 31 32 33 33 31 28 25 26 30 31 31 34 35 35 31 25 23 24 26 26 26 27 29 29 29 28 29 34 37 35 32 24 15 21 28 26 29 24 15 18 22 20 22 22 18 23 26 27 30 30 28 30 29 29 32 32
28 30 26 14 19 20 18 24 27 26 29 31 29 30 29 29 31 30 29 30 31 32 33 35 37 33 29 30 30 28 27 29 32 32 32 33 34 32 28 26 28 31 31 32 32 33 32 29 25 23 24 26 24 26 29 28 29 31 31 32 37 39 40 32 22 23 27 28 29 22 14 21 26 19 18 20 18 20 23 24 26 27 28 30 30 30 32 33
29 32 31 20 20 27 26 28 29 28 29 29 29 31 31 31 32 31 30 31 30 31 32 33 35 35 33 30 30 30 27 26 29 31 30 31 32 32 31 29 28 29 31 30 29 32 32 31 28 21 16 19 22 23 28 31 31 32 32 32 33 37 41 39 32 26 25 28 29 19 12 24 32 25 18 17 17 20 22 21 23 26 27 29 32 32 31 30
27 30 28 19 13 24 30 30 29 29 28 28 30 31 30 30 30 30 32 34 33 31 32 32 30 31 34 33 33 34 31 28 27 26 28 31 30 29 31 32 30 29 30 28 26 29 31 31 31 25 15 13 15 17 22 29 32 31 30 31 31 33 36 39 38 31 22 22 28 25 19 21 27 28 25 19 16 19 20 21 24 26 24 24 26 24 23 24
23 25 23 17 10 18 27 28 29 31 29 28 28 28 29 31 27 24 25 30 35 35 34 34 31 28 29 31 34 37 36 33 29 26 27 28 27 29 31 31 31 30 31 30 27 28 29 30 33 34 28 21 20 21 22 24 28 30 30 31 32 33 34 36 37 36 29 23 24 27 25 21 22 28 31 28 24 20 17 18 22 24 26 27 23 17 18 22
20 21 19 16 13 16 22 24 25 27 28 30 30 27 27 30 29 28 23 21 24 29 32 36 36 33 30 27 28 33 36 35 34 32 31 28 26 28 31 31 30 31 33 31 26 26 29 29 32 36 37 31 25 24 24 23 26 28 29 30 31 31 33 35 36 37 34 26 23 26 26 24 25 28 27 28 32 30 23 20 21 21 21 26 26 22 19 21
19 21 17 15 17 18 20 22 21 21 23 25 27 28 28 31 32 31 28 24 22 18 16 22 28 31 31 27 26 28 31 33 35 36 34 29 25 27 31 33 31 33 36 32 24 22 25 26 27 30 35 36 32 28 26 25 25 27 27 28 30 31 32 34 34 36 36 32 29 29 27 23 26 32 30 23 25 29 27 24 26 26 23 23 26 25 24 25
20 22 20 18 21 23 23 24 23 23 23 23 24 26 29 34 36 31 26 25 26 22 13 14 18 18 20 25 24 23 24 27 31 36 37 33 28 27 30 33 33 31 33 32 28 23 22 24 24 24 27 33 35 34 31 28 26 27 29 29 28 29 31 32 33 34 37 37 34 31 30 27 27 32 35 30 25 24 23 21 24 28 29 29 28 27 26 28
20 22 22 22 25 25 24 23 23 24 24 22 24 25 27 31 33 34 30 23 23 26 16 16 20 18 18 22 19 15 17 17 17 22 28 30 30 30 30 31 33 32 31 31 29 25 23 22 21 22 23 25 31 35 35 32 28 27 29 30 30 30 30 32 33 34 35 36 33 32 35 36 32 30 34 37 35 32 29 25 24 27 30 31 31 31 30 30
22 23 22 25 27 25 23 21 22 24 23 22 23 24 24 27 27 32 34 28 28 32 20 17 21 23 22 23 17 16 17 14 14 17 20 21 26 32 32 30 31 32 34 35 32 29 27 24 21 22 23 24 25 28 32 33 31 30 31 32 33 34 32 31 30 30 32 32 30 31 34 35 33 30 28 29 33 38 40 35 30 28 29 30 31 31 31 32
22 23 22 26 29 26 22 22 23 24 23 21 22 22 22 23 22 25 29 29 31 33 25 23 27 26 25 27 21 18 18 14 20 27 25 24 29 30 28 30 30 29 30 34 34 32 30 28 25 23 23 26 25 23 26 27 25 29 36 36 34 33 32 30 28 28 32 33 30 30 30 30 29 29 29 28 28 33 38 39 37 32 30 29 29 30 32 32
Wind_Direction
279 279 279 280 280 280 281 281 283 285 287 291 293 294 295 293 291 288 285 282 278 273 272 274 276 278 279 281 281 281 286 289 280 267 253 234 232 240 242 241 245 248 248 250 251 253 257 260 265 273 278 283 272 262 253 242 243 247 259 279 294 297 266 271 336 27 114 125 134 137 138 131 129 131 134 130 129 134 134 143 145 131 144 162 173 162 162 165
278 279 279 280 279 279 280 280 280 281 282 285 287 291 293 294 294 292 290 287 284 280 276 274 276 278 278 279 280 281 285 289 284 270 258 240 230 237 241 239 240 243 244 245 247 249 252 258 261 264 259 253 252 253 254 246 234 236 251 274 291 286 266 296 336 342 146 136 137 141 146 140 137 136 135 137 137 140 140 143 142 134 155 179 174 163 173 169
277 278 278 278 278 279 278 279 280 280 281 282 283 286 288 291 293 294 294 291 288 285 282 279 278 278 280 278 280 282 284 292 291 274 254 244 234 232 235 237 237 239 240 241 243 245 247 251 251 244 239 240 244 246 253 242 223 226 231 259 296 296 288 287 279 229 172 149 142 140 148 142 142 144 141 145 142 146 148 147 147 145 163 186 170 167 178 171
275 275 275 275 276 277 277 278 278 280 281 281 282 283 284 286 289 292 293 293 292 290 289 286 282 280 281 279 280 281 290 307 293 269 252 246 242 234 230 230 233 235 236 236 237 238 240 233 228 232 231 239 246 244 245 231 215 218 217 240 309 325 308 250 190 220 146 156 151 140 149 143 147 153 148 151 144 153 160 155 159 159 173 183 167 168 171 172
273 273 273 274 274 275 276 276 277 278 279 280 281 282 283 283 285 288 289 292 292 292 293 291 288 285 281 280 280 278 289 329 287 269 262 247 245 238 230 225 225 230 230 231 230 227 230 221 215 228 231 235 242 242 239 231 230 238 232 249 308 326 24 83 183 200 136 163 155 146 159 148 150 151 153 160 154 167 167 161 165 169 184 184 172 172 166 170
275 273 273 273 273 274 274 275 276 276 277 277 278 279 281 282 282 284 285 287 288 292 293 293 294 289 286 280 277 273 264 242 249 274 271 256 250 240 231 225 219 223 225 226 225 219 220 217 212 222 231 235 239 240 236 232 238 247 243 249 278 259 289 42 181 187 165 182 168 156 159 152 155 148 153 164 157 171 164 162 167 173 190 186 175 178 166 167
278 276 275 275 274 274 273 274 274 274 275 275 276 276 277 279 281 282 282 283 285 288 289 291 293 292 291 283 276 270 256 245 252 267 270 265 257 245 234 226 219 218 221 223 222 217 215 216 214 219 228 233 238 242 241 240 242 247 243 249 269 261 249 246 206 202 195 187 176 163 158 161 168 155 156 161 137 155 157 161 170 176 192 185 174 178 171 171
279 277 277 276 275 274 273 273 273 273 273 273 274 273 274 276 278 280 280 280 282 284 286 287 289 291 291 287 282 269 261 280 281 269 270 268 257 249 238 227 221 217 219 220 220 216 212 217 216 217 227 232 236 238 242 247 248 249 244 247 260 251 231 237 236 213 184 180 183 174 169 168 168 164 165 162 138 146 155 162 173 183 187 181 175 174 175 175
279 278 277 276 275 274 273 273 272 272 272 271 271 271 272 272 274 277 277 278 280 281 282 282 284 285 285 286 282 273 264 293 277 270 270 269 256 245 240 229 223 218 217 216 216 211 207 218 220 218 227 234 239 240 242 246 245 244 240 242 243 238 232 233 238 221 196 190 190 184 181 171 166 170 169 167 150 147 157 162 172 186 183 181 178 175 179 178
283 282 280 278 277 276 274 273 272 272 271 271 270 270 270 269 270 272 273 276 277 278 279 280 281 280 280 279 275 272 254 238 267 280 277 270 257 236 235 233 225 218 217 215 214 210 204 213 221 222 232 237 242 245 245 245 246 245 247 251 237 233 231 226 241 230 212 198 190 189 185 174 175 181 171 171 164 157 162 162 171 183 182 185 179 178 185 180
288 286 284 282 280 278 277 276 274 273 272 271 270 270 269 269 268 268 270 272 273 276 276 277 277 276 276 272 269 268 256 236 256 280 280 277 267 235 230 236 230 220 217 217 215 212 208 209 213 222 234 239 241 246 249 248 252 255 264 267 240 233 232 224 237 227 212 207 194 189 190 183 187 196 179 174 171 165 167 165 172 179 178 184 181 184 191 182
291 289 288 286 284 282 280 278 277 275 273 272 270 269 269 268 267 267 267 268 270 273 274 276 275 274 273 269 269 269 254 245 243 248 262 276 275 241 226 227 230 224 218 219 218 214 213 210 212 222 228 235 239 243 249 249 254 258 265 265 243 248 247 228 232 229 221 213 196 189 193 190 190 199 184 179 174 168 172 170 173 176 176 182 181 188 198 185
293 291 290 288 287 285 284 282 280 279 277 275 273 271 269 267 267 266 266 266 268 269 271 273 273 273 272 269 271 268 258 255 254 246 246 263 269 252 232 224 226 225 219 219 217 216 219 215 216 225 227 233 238 239 246 249 255 255 252 253 247 248 242 227 228 228 224 212 194 192 199 196 193 199 186 180 174 171 176 174 175 176 178 182 180 191 203 190
295 293 291 290 289 287 287 286 284 283 280 278 276 274 272 269 268 266 265 265 265 266 268 270 273 273 271 270 273 268 266 264 260 253 241 248 258 255 239 231 228 223 221 220 214 211 221 225 224 228 229 232 236 242 249 249 253 253 242 240 244 247 238 224 223 223 222 209 192 196 208 206 196 196 188 182 176 178 181 177 178 178 180 184 183 194 206 194
296 295 293 292 290 288 287 287 287 285 284 282 280 278 276 273 271 268 266 264 263 264 265 267 270 272 274 277 274 260 259 264 260 257 247 242 250 251 237 236 235 224 221 222 216 207 208 221 228 230 230 231 234 242 249 246 244 245 240 233 229 239 243 228 220 219 217 202 191 204 212 207 200 196 189 186 182 182 184 181 182 181 183 187 187 195 207 199
296 295 295 294 292 291 289 288 287 285 286 285 282 281 280 277 274 271 268 265 263 262 263 266 267 269 275 281 280 265 258 265 262 257 252 242 241 244 232 235 240 231 221 220 222 213 208 213 223 229 230 228 229 235 244 245 238 232 235 235 224 226 233 229 219 213 210 197 195 210 210 205 209 202 193 190 186 184 187 186 185 185 186 192 193 196 206 204
293 294 295 295 294 293 292 291 289 287 286 285 284 284 282 280 276 272 271 267 265 263 261 263 265 267 271 275 276 277 276 274 270 255 250 243 231 226 225 230 232 230 222 219 222 217 214 217 221 226 226 225 225 225 232 238 235 225 223 232 232 229 227 222 214 204 204 203 203 212 214 221 215 197 193 192 188 186 189 189 189 189 189 195 197 196 206 213
291 293 293 293 294 293 292 293 291 290 288 286 285 284 281 280 277 275 274 269 266 262 259 259 262 265 273 286 275 278 283 260 258 252 244 241 222 206 211 225 224 219 217 218 221 214 211 217 218 221 222 222 220 218 222 226 227 225 218 222 231 236 230 218 211 200 200 208 208 210 214 225 218 194 190 190 190 190 191 191 192 192 192 197 199 196 206 219
290 291 291 293 292 291 292 291 292 292 291 290 288 289 285 277 277 280 273 265 263 260 260 261 256 249 240 311 301 293 225 229 240 240 230 232 220 204 201 215 218 211 210 214 218 212 206 211 213 217 219 218 217 216 220 223 224 229 224 221 225 230 228 219 216 205 202 212 212 212 213 213 212 200 191 191 193 193 192 193 195 194 194 198 201 198 204 220
289 288 289 290 289 290 290 290 292 291 292 291 289 291 287 281 284 282 270 266 265 259 253 248 250 246 228 209 280 270 223 228 234 221 217 227 222 213 205 210 213 210 211 211 214 211 205 210 214 217 218 217 219 219 222 227 229 234 235 231 228 227 226 218 219 216 208 215 216 213 216 211 208 200 193 196 197 195 195 196 196 197 198 200 203 201 202 216
288 288 288 287 287 288 287 289 291 290 293 292 290 290 283 283 287 278 275 275 270 263 255 240 244 251 238 217 212 228 242 252 252 233 225 226 216 217 214 208 207 211 214 210 212 213 209 217 220 219 221 220 221 222 224 228 229 234 240 241 237 233 233 225 224 223 209 215 220 213 216 216 209 201 196 200 201 198 199 198 199 200 200 202 206 206 205 211
288 287 286 285 286 286 284 286 287 289 292 291 291 290 283 285 286 280 282 279 267 261 263 247 237 247 247 229 210 206 226 244 249 243 229 217 211 216 215 209 209 213 215 211 213 213 212 222 224 220 222 221 222 223 223 227 228 233 239 244 245 236 231 229 231 230 209 209 223 215 216 219 212 209 204 201 205 207 205 203 203 201 202 206 207 207 208 209
288 287 285 284 284 286 285 282 283 286 287 288 288 285 284 286 285 284 286 283 273 258 259 257 245 245 248 241 219 207 219 226 229 235 226 215 214 215 211 210 214 215 215 213 213 215 216 223 224 220 220 219 221 223 222 226 228 232 235 239 245 240 231 223 226 234 217 207 220 217 218 223 217 216 213 207 209 212 211 208 207 204 203 206 207 209 211 212
288 287 285 283 282 284 285 282 283 283 281 284 283 281 285 286 287 287 286 286 280 264 260 263 254 249 245 242 229 218 224 226 223 224 222 218 214 213 213 212 217 219 219 217 217 221 225 226 224 220 220 219 220 222 222 224 226 229 232 233 239 242 240 228 221 235 225 211 218 220 221 226 222 220 217 212 212 215 215 213 210 208 205 204 206 214 217 213
286 286 284 284 281 280 283 282 281 280 280 279 277 279 283 285 289 289 290 294 286 275 273 265 254 252 246 232 226 223 227 230 228 222 219 221 214 209 213 213 217 222 222 221 222 227 231 230 223 219 219 219 219 221 221 222 225 228 229 232 235 239 242 234 225 232 220 205 211 216 222 228 222 223 223 213 210 213 216 214 211 209 207 207 205 210 218 216
284 284 283 283 282 278 279 281 278 276 277 272 272 278 282 284 289 290 298 301 291 286 276 261 255 251 238 221 215 214 223 234 235 226 217 221 217 207 211 214 218 223 224 225 227 231 232 228 224 221 218 218 219 221 220 220 226 229 227 229 234 239 243 236 228 228 216 204 207 213 221 231 223 222 225 219 211 213 216 215 215 211 207 209 208 207 216 218
283 283 281 281 282 277 274 277 277 272 271 269 272 277 277 282 286 294 308 299 292 295 254 233 240 239 229 217 207 200 209 232 237 228 216 214 217 211 212 215 216 222 221 223 230 230 228 226 225 222 219 218 219 220 220 218 225 231 227 226 230 236 243 240 232 230 224 214 212 217 225 235 233 224 224 222 215 214 216 213 213 215 211 210 212 210 214 217
282 282 280 280 280 278 273 272 273 269 267 268 272 272 269 274 276 286 310 285 279 294 209 215 224 226 212 201 209 208 207 213 222 228 219 209 212 211 214 216 215 221 219 220 230 229 224 225 225 221 219 220 220 220 219 218 223 229 228 228 228 230 238 244 243 238 228 215 208 213 221 233 241 232 226 224 217 217 221 218 214 216 215 213 213 212 213 217
281 281 280 279 276 277 276 272 271 268 266 266 265 265 262 263 263 258 268 257 242 233 231 223 219 223 203 192 213 218 214 212 216 229 218 206 210 211 215 218 215 221 223 223 233 233 226 226 225 224 222 222 224 222 220 220 223 226 227 233 234 230 231 235 243 248 242 229 219 219 217 223 244 236 228 226 220 221 225 224 219 217 218 216 213 213 216 219
280 279 280 278 273 272 273 273 271 267 265 264 257 256 253 242 235 231 235 237 245 260 238 216 214 221 200 193 210 216 210 214 217 212 199 200 209 212 217 222 219 224 229 227 232 235 234 231 223 225 226 225 226 224 221 221 222 224 226 231 237 239 236 231 231 239 247 246 241 238 224 214 229 235 230 228 225 223 223 222 220 216 216 217 217 217 217 219
282 280 279 279 274 269 269 270 269 267 265 260 249 243 239 230 221 223 232 233 246 256 217 205 214 213 199 197 208 212 206 209 210 199 191 194 203 208 213 216 215 221 229 230 231 232 236 236 226 223 226 227 227 225 223 221 220 222 223 226 232 239 244 243 233 229 235 247 244 244 236 222 222 230 228 229 228 225 224 222 218 215 214 215 219 220 215 215
284 281 278 279 276 270 267 264 264 265 261 254 240 227 222 224 226 224 226 236 251 244 220 212 214 206 204 206 209 208 203 206 206 198 193 193 198 203 207 208 205 209 219 224 225 226 229 233 231 225 223 224 223 220 221 221 218 218 218 219 223 228 234 242 241 230 223 230 234 238 240 235 233 235 231 230 228 225 224 222 217 217 215 212 213 213 216 221
287 283 279 279 278 274 266 260 261 260 255 248 231 219 211 222 233 224 221 226 233 240 224 221 220 211 207 209 211 208 204 206 205 201 199 198 202 207 209 209 206 207 213 216 218 222 224 227 229 227 221 219 219 216 215 215 212 213 214 215 217 220 221 223 235 241 229 227 231 234 240 243 241 238 232 229 229 227 224 220 217 216 211 208 211 216 223 230
290 287 283 279 279 278 270 260 258 254 251 242 221 210 211 228 236 227 224 228 230 241 250 240 232 221 212 212 213 208 205 207 206 204 203 203 207 211 210 211 211 212 216 217 217 219 221 220 220 222 219 214 216 216 214 211 211 213 214 217 220 220 223 224 224 233 238 238 238 235 235 240 243 239 230 227 228 226 223 219 217 213 210 213 219 225 231 230
291 289 287 284 280 279 273 263 255 250 248 234 215 210 219 229 233 231 232 232 232 242 251 256 251 235 224 218 218 214 210 209 206 207 209 208 211 213 210 211 212 211 215 219 219 217 224 228 220 218 219 216 215 216 214 216 219 217 214 219 223 220 222 233 235 232 235 241 242 237 232 230 238 241 230 227 226 222 219 219 217 212 214 219 218 221 228 226
293 290 290 290 284 279 274 264 251 246 245 230 216 221 226 229 229 230 236 238 238 244 251 254 248 240 234 225 219 219 218 216 209 208 213 213 215 216 214 213 212 211 211 215 218 215 222 231 222 215 218 218 217 214 211 215 222 217 212 218 222 219 221 231 240 236 236 240 238 239 238 230 232 236 228 225 227 224 219 217 218 213 211 214 214 221 229 226
296 292 293 295 287 279 271 265 252 241 241 228 223 230 233 233 234 235 236 239 245 247 251 252 243 236 236 231 223 218 217 218 213 212 215 214 217 219 217 217 214 212 211 213 220 222 226 234 223 213 216 216 213 214 213 216 223 223 215 216 220 220 222 229 236 231 233 245 237 234 239 237 235 231 218 214 217 222 218 213 213 211 209 211 216 222 227 224
299 296 300 303 293 282 265 261 252 239 237 230 231 237 238 238 238 237 237 242 253 260 254 251 245 238 236 233 229 221 214 216 215 216 218 216 218 219 216 218 217 213 213 215 222 226 230 240 230 214 216 213 205 210 217 216 221 228 226 216 214 215 218 224 230 225 225 240 238 232 235 237 239 235 216 208 207 209 210 208 208 207 207 212 216 217 221 220
302 301 303 308 308 294 250 244 242 235 234 232 236 242 244 243 240 232 229 236 249 261 261 255 250 246 240 234 233 228 218 217 218 219 221 221 222 219 214 216 217 213 211 212 220 225 224 234 238 218 211 207 200 204 214 215 214 223 233 229 219 217 219 222 225 224 226 236 237 235 236 234 236 238 231 217 206 201 202 204 206 206 208 213 217 219 218 210
301 300 299 299 284 268 245 235 234 233 234 235 240 246 248 251 250 240 230 228 237 248 256 256 251 248 246 240 236 234 227 223 221 220 222 223 223 221 215 214 215 214 210 208 215 223 224 228 235 224 206 202 203 204 209 213 209 213 226 232 225 216 217 223 226 222 222 234 238 233 237 235 233 235 239 234 212 200 200 203 206 209 213 215 221 221 206 196
298 294 300 332 253 259 261 256 246 239 239 242 245 249 251 253 256 252 243 237 239 244 249 254 254 251 250 247 240 236 235 231 224 220 221 222 222 221 217 213 213 211 208 207 210 216 221 223 228 226 214 207 210 210 209 211 212 212 218 226 227 219 213 218 225 219 218 226 234 236 245 239 234 232 237 240 217 201 204 210 212 216 220 220 224 222 205 202
294 286 283 187 188 241 260 258 253 246 245 248 248 252 255 255 254 253 249 245 246 247 249 252 254 252 251 250 246 241 240 239 232 224 221 221 222 222 217 213 213 211 208 208 208 210 216 221 224 226 225 221 216 212 211 210 213 219 220 220 225 226 222 221 221 217 218 224 229 234 245 240 235 231 234 236 221 209 214 216 215 217 219 217 219 223 218 222
294 285 278 243 212 225 243 251 252 249 248 252 254 254 256 256 256 254 250 247 247 247 248 248 247 248 248 248 249 248 245 244 241 236 228 223 222 223 223 218 214 212 211 211 208 206 211 219 224 223 227 236 230 213 212 213 213 220 224 219 219 224 226 228 226 219 222 227 226 226 232 232 232 235 236 237 231 218 212 212 212 215 216 214 216 224 231 233
296 290 289 276 232 226 237 247 251 252 252 256 258 256 255 254 254 254 251 247 245 244 245 245 245 245 244 246 249 250 251 249 246 243 237 232 226 221 221 218 213 211 212 211 206 202 205 214 220 219 218 232 234 215 207 212 213 217 223 222 220 222 225 229 232 228 225 228 226 225 229 225 227 233 233 228 226 217 210 212 218 222 223 219 219 223 225 221
299 296 294 291 244 229 239 245 249 255 258 258 258 257 256 254 250 250 252 249 244 243 244 244 244 243 242 243 245 247 248 250 252 248 242 242 236 223 219 217 212 210 212 212 208 203 205 208 213 219 217 213 222 214 203 207 211 215 220 224 225 224 223 226 232 235 234 229 227 232 240 226 218 224 227 220 217 212 210 221 227 224 220 213 212 217 219 218
298 298 295 296 275 245 248 249 249 253 257 258 260 259 258 257 250 242 251 255 246 242 246 246 243 244 243 240 241 244 246 246 250 252 249 249 239 225 222 220 212 208 212 215 209 203 209 212 211 218 225 222 219 219 213 207 209 213 216 220 226 226 224 224 228 233 235 235 235 238 246 241 222 220 221 218 220 219 213 224 228 219 212 207 210 222 223 222
285 285 287 294 287 256 248 248 248 253 255 256 260 263 261 263 256 243 249 259 246 243 250 246 240 239 240 240 240 241 242 244 247 249 251 252 243 228 223 221 215 210 214 221 215 206 213 219 215 216 225 230 227 222 221 216 214 217 217 217 223 227 227 225 225 231 234 236 239 237 241 245 238 234 229 217 220 229 230 224 221 217 210 204 211 225 222 215
274 274 276 280 276 265 255 252 257 264 264 263 264 265 262 259 256 253 254 252 240 243 259 249 238 235 236 243 250 245 242 243 243 244 246 247 245 236 225 221 219 212 212 221 224 215 219 225 222 219 221 226 230 229 228 225 219 221 221 219 220 224 228 230 227 228 231 235 238 235 234 237 236 240 245 233 221 228 232 225 219 221 221 211 216 228 227 228
273 274 276 269 265 267 265 263 270 275 273 272 269 268 267 258 253 256 263 262 249 242 261 279 262 247 235 237 248 254 247 242 242 242 241 241 242 239 230 223 219 210 207 216 222 219 223 226 224 226 224 223 226 230 233 235 229 227 227 224 222 220 223 231 234 232 231 235 238 238 238 239 233 234 243 247 240 233 230 226 220 220 222 221 224 234 236 239
276 275 279 273 264 267 269 267 272 273 271 271 267 269 273 266 257 253 257 271 263 246 263 299 272 246 233 229 238 267 268 262 267 255 242 243 243 238 234 227 221 213 209 216 220 218 224 227 219 226 234 229 224 225 230 236 238 238 236 231 232 232 225 223 229 234 236 238 236 234 238 242 239 235 238 243 245 242 238 237 231 225 224 224 228 236 242 244
278 273 279 280 272 269 271 272 273 271 268 268 265 266 270 269 265 257 254 262 260 251 268 301 271 246 235 233 250 296 293 273 260 239 226 230 231 230 234 232 226 219 213 215 220 219 222 227 220 221 234 237 229 222 223 229 235 241 241 233 231 236 234 226 224 229 236 242 242 235 234 237 238 236 236 238 241 241 242 245 242 235 231 230 233 236 238 238
282 277 278 282 276 270 271 274 274 271 269 268 267 268 269 269 268 263 261 264 262 259 268 278 270 261 248 243 256 286 294 274 238 226 223 224 220 220 231 232 227 225 216 212 216 218 218 222 221 220 229 233 230 226 225 227 230 233 235 233 230 233 236 234 235 235 231 233 239 242 241 240 240 238 235 235 236 237 240 245 245 239 234 234 236 234 232 231
Height
3164 3163 3162 3161 3160 3160 3159 3158 3158 3157 3157 3156 3155 3154 3153 3152 3151 3151 3150 3150 3150 3150 3149 3149 3148 3148 3147 3146 3145 3144 3144 3143 3142 3140 3141 3144 3144 3144 3147 3151 3153 3155 3156 3158 3159 3161 3162 3164 3165 3165 3166 3167 3168 3168 3170 3172 3173 3173 3171 3171 3171 3169 3169 3168 3165 3165 3165 3164 3165 3165 3165 3165 3165 3166 3166 3167 3168 3168 3169 3171 3172 3172 3172 3171 3171 3173 3174 3175
3162 3161 3161 3160 3159 3158 3158 3157 3156 3156 3155 3154 3154 3153 3152 3151 3151 3150 3149 3149 3148 3148 3148 3147 3147 3146 3145 3144 3143 3142 3142 3140 3139 3138 3139 3141 3142 3143 3146 3149 3151 3152 3154 3156 3158 3159 3161 3163 3164 3165 3166 3167 3168 3169 3169 3171 3172 3172 3170 3170 3170 3169 3169 3168 3165 3166 3166 3165 3165 3165 3165 3165 3165 3166 3166 3167 3168 3169 3170 3171 3172 3172 3172 3171 3172 3174 3175 3176
3160 3160 3159 3158 3157 3157 3156 3155 3155 3154 3154 3153 3152 3152 3151 3150 3150 3149 3148 3148 3147 3147 3146 3146 3145 3144 3144 3143 3142 3141 3140 3139 3137 3136 3137 3139 3141 3142 3144 3146 3148 3150 3152 3154 3156 3158 3160 3162 3164 3165 3166 3167 3168 3169 3169 3170 3170 3170 3169 3169 3169 3169 3168 3166 3166 3167 3165 3165 3165 3165 3166 3165 3166 3166 3166 3168 3169 3169 3170 3171 3171 3171 3170 3170 3172 3174 3174 3176
3158 3158 3157 3156 3156 3155 3154 3154 3153 3153 3153 3152 3151 3150 3150 3149 3149 3148 3147 3147 3146 3145 3145 3144 3144 3143 3143 3142 3141 3139 3139 3138 3135 3134 3136 3138 3139 3141 3143 3145 3146 3148 3150 3152 3154 3156 3159 3161 3163 3165 3166 3167 3168 3168 3169 3168 3169 3169 3168 3168 3168 3168 3167 3164 3166 3167 3165 3165 3165 3165 3166 3165 3166 3166 3166 3168 3168 3170 3170 3171 3171 3170 3169 3170 3172 3173 3174 3176
3156 3156 3155 3154 3154 3153 3153 3152 3152 3152 3151 3151 3150 3149 3148 3148 3147 3147 3146 3146 3145 3144 3144 3143 3143 3142 3141 3141 3140 3139 3138 3138 3134 3133 3136 3137 3138 3139 3141 3143 3145 3146 3148 3150 3152 3155 3157 3160 3163 3164 3165 3166 3167 3167 3167 3167 3167 3167 3165 3166 3166 3167 3166 3162 3164 3167 3165 3165 3165 3165 3166 3166 3166 3166 3167 3168 3168 3169 3169 3170 3171 3169 3169 3170 3172 3173 3174 3176
3154 3154 3153 3153 3152 3152 3151 3151 3150 3150 3149 3149 3149 3148 3147 3146 3146 3146 3145 3145 3144 3143 3143 3142 3142 3141 3140 3139 3139 3138 3137 3137 3134 3133 3135 3136 3137 3138 3139 3141 3143 3145 3146 3148 3150 3153 3155 3158 3161 3163 3164 3164 3165 3165 3165 3166 3166 3165 3163 3164 3166 3167 3165 3162 3164 3166 3165 3165 3165 3165 3165 3166 3166 3166 3168 3168 3168 3169 3169 3170 3170 3169 3169 3170 3172 3173 3174 3175
3152 3152 3151 3151 3150 3150 3149 3149 3149 3148 3148 3147 3147 3146 3146 3145 3145 3144 3144 3143 3143 3142 3142 3141 3140 3140 3139 3138 3138 3137 3136 3135 3135 3133 3133 3135 3136 3137 3138 3140 3141 3143 3144 3146 3148 3151 3153 3156 3158 3161 3163 3163 3164 3164 3164 3164 3164 3164 3162 3163 3165 3164 3163 3163 3165 3164 3164 3165 3165 3165 3165 3166 3166 3167 3168 3168 3168 3168 3168 3169 3169 3169 3169 3170 3172 3173 3174 3175
3150 3149 3149 3149 3148 3148 3147 3147 3147 3146 3146 3146 3145 3145 3144 3144 3143 3143 3142 3142 3141 3141 3140 3140 3139 3139 3138 3137 3137 3135 3135 3135 3133 3132 3132 3133 3135 3136 3137 3138 3140 3141 3143 3145 3147 3149 3152 3154 3157 3159 3162 3162 3163 3164 3164 3163 3162 3163 3162 3161 3162 3162 3163 3164 3164 3164 3164 3164 3164 3165 3165 3166 3166 3167 3167 3168 3169 3169 3168 3169 3169 3169 3169 3170 3171 3172 3174 3175
3147 3146 3146 3146 3146 3145 3145 3145 3144 3144 3144 3144 3143 3143 3143 3142 3142 3141 3140 3140 3140 3139 3139 3138 3138 3137 3137 3136 3136 3134 3134 3134 3132 3130 3131 3132 3133 3134 3135 3137 3138 3140 3142 3143 3145 3148 3150 3153 3155 3158 3160 3161 3162 3162 3163 3163 3161 3161 3160 3160 3161 3161 3163 3163 3163 3163 3163 3163 3164 3164 3165 3166 3166 3166 3167 3168 3169 3170 3169 3169 3169 3168 3169 3170 3171 3172 3174 3175
3145 3144 3144 3143 3143 3143 3142 3142 3142 3142 3142 3141 3141 3141 3141 3141 3140 3140 3139 3138 3138 3138 3137 3137 3136 3136 3135 3135 3134 3133 3133 3134 3133 3130 3129 3130 3131 3133 3134 3135 3137 3139 3140 3142 3144 3146 3148 3152 3155 3157 3159 3159 3160 3160 3161 3161 3160 3159 3159 3159 3159 3160 3161 3162 3162 3162 3162 3162 3162 3164 3164 3165 3166 3166 3167 3168 3169 3170 3169 3169 3169 3168 3169 3170 3171 3172 3173 3175
3143 3142 3142 3141 3141 3140 3140 3140 3139 3139 3139 3139 3139 3139 3139 3139 3138 3138 3137 3137 3136 3136 3135 3135 3135 3134 3134 3133 3132 3132 3131 3133 3134 3132 3129 3128 3130 3131 3132 3133 3135 3137 3139 3141 3143 3144 3147 3150 3153 3156 3157 3158 3158 3159 3159 3159 3158 3158 3158 3158 3157 3158 3159 3160 3161 3161 3161 3161 3161 3163 3164 3165 3166 3165 3167 3167 3167 3170 3169 3169 3169 3169 3170 3170 3171 3172 3173 3175
3141 3140 3140 3139 3138 3138 3137 3137 3137 3137 3137 3137 3137 3137 3137 3136 3136 3136 3136 3135 3134 3134 3133 3133 3132 3132 3131 3130 3130 3131 3130 3131 3132 3132 3130 3128 3128 3130 3131 3132 3134 3136 3138 3140 3141 3143 3146 3148 3151 3153 3155 3156 3157 3157 3157 3157 3157 3157 3157 3156 3156 3157 3157 3158 3159 3159 3160 3160 3160 3162 3163 3164 3165 3165 3166 3166 3166 3169 3169 3169 3169 3169 3170 3170 3171 3172 3173 3174
3139 3138 3138 3137 3136 3136 3135 3135 3134 3134 3134 3134 3134 3134 3134 3134 3134 3134 3133 3133 3133 3132 3131 3131 3130 3129 3128 3127 3128 3130 3128 3129 3129 3129 3130 3128 3127 3128 3129 3131 3132 3134 3136 3138 3140 3143 3144 3147 3149 3151 3153 3154 3155 3156 3155 3156 3156 3155 3156 3155 3155 3155 3155 3156 3157 3158 3158 3158 3159 3161 3161 3162 3164 3165 3166 3165 3166 3169 3169 3169 3169 3169 3170 3170 3171 3172 3172 3174
3137 3136 3136 3135 3134 3133 3133 3132 3132 3132 3131 3131 3131 3131 3131 3131 3131 3131 3131 3131 3130 3130 3129 3128 3127 3127 3125 3124 3126 3127 3126 3127 3126 3126 3128 3127 3127 3127 3128 3129 3131 3132 3134 3136 3139 3142 3144 3146 3147 3149 3151 3152 3153 3155 3154 3154 3155 3154 3154 3154 3154 3153 3151 3153 3155 3156 3157 3157 3158 3160 3160 3161 3162 3164 3165 3164 3165 3168 3168 3168 3169 3169 3170 3170 3171 3171 3172 3173
3136 3135 3134 3133 3132 3131 3131 3130 3130 3129 3129 3129 3129 3128 3128 3128 3128 3128 3128 3128 3128 3127 3127 3126 3125 3124 3122 3121 3123 3124 3124 3124 3124 3125 3125 3126 3125 3126 3127 3128 3129 3131 3133 3135 3137 3139 3142 3145 3146 3147 3148 3150 3152 3153 3152 3152 3153 3152 3151 3150 3151 3151 3150 3151 3152 3154 3155 3155 3157 3159 3158 3160 3161 3162 3164 3163 3164 3167 3168 3168 3169 3169 3169 3170 3170 3171 3171 3173
3134 3133 3132 3131 3130 3129 3128 3128 3128 3127 3127 3126 3126 3126 3126 3125 3126 3125 3125 3125 3125 3124 3125 3124 3123 3122 3121 3119 3120 3122 3122 3122 3122 3123 3123 3123 3124 3124 3126 3128 3129 3130 3131 3133 3135 3137 3140 3142 3144 3145 3146 3148 3150 3150 3151 3150 3149 3149 3149 3147 3148 3149 3148 3149 3150 3152 3154 3155 3156 3157 3157 3158 3159 3161 3162 3162 3163 3165 3167 3167 3168 3169 3169 3169 3170 3170 3171 3172
3132 3131 3130 3129 3128 3127 3126 3126 3125 3125 3125 3124 3123 3124 3123 3122 3122 3122 3122 3122 3122 3122 3122 3122 3120 3120 3120 3118 3117 3119 3120 3120 3120 3121 3120 3121 3122 3124 3126 3128 3128 3129 3130 3132 3134 3135 3138 3140 3141 3143 3144 3146 3147 3149 3149 3147 3145 3145 3146 3146 3146 3145 3146 3147 3148 3150 3152 3153 3155 3156 3156 3157 3157 3158 3160 3161 3162 3164 3165 3166 3167 3168 3169 3169 3169 3170 3170 3171
3130 3129 3129 3127 3126 3125 3124 3123 3123 3122 3123 3122 3121 3122 3121 3120 3119 3119 3119 3118 3118 3118 3119 3119 3118 3118 3118 3117 3116 3117 3119 3119 3118 3119 3119 3119 3120 3123 3126 3127 3128 3129 3130 3131 3132 3134 3136 3138 3140 3141 3141 3141 3143 3145 3143 3142 3143 3143 3143 3144 3144 3144 3144 3145 3148 3149 3150 3152 3153 3154 3155 3156 3157 3157 3159 3160 3161 3163 3164 3165 3166 3167 3168 3168 3168 3170 3170 3170
3127 3127 3126 3125 3124 3123 3121 3121 3120 3120 3120 3120 3119 3119 3119 3117 3117 3117 3115 3114 3115 3115 3116 3117 3115 3114 3115 3116 3116 3116 3118 3118 3117 3118 3118 3118 3120 3121 3124 3126 3127 3128 3129 3130 3130 3131 3134 3136 3136 3136 3135 3136 3138 3140 3140 3141 3143 3142 3142 3142 3142 3142 3142 3144 3146 3148 3149 3151 3151 3152 3153 3155 3156 3157 3158 3159 3160 3162 3163 3164 3165 3166 3168 3168 3168 3169 3170 3169
3124 3124 3124 3123 3122 3121 3119 3119 3118 3117 3117 3118 3117 3117 3116 3114 3115 3114 3109 3110 3111 3111 3113 3113 3110 3109 3112 3114 3116 3118 3117 3115 3115 3118 3118 3118 3119 3120 3122 3124 3125 3126 3127 3128 3128 3129 3132 3132 3130 3130 3131 3134 3136 3138 3140 3141 3142 3141 3140 3139 3138 3138 3139 3141 3145 3146 3147 3148 3149 3151 3152 3154 3155 3156 3157 3159 3160 3161 3161 3162 3163 3165 3166 3166 3167 3168 3169 3169
3121 3121 3121 3120 3120 3119 3117 3117 3116 3115 3115 3115 3115 3115 3113 3111 3113 3111 3106 3106 3108 3107 3107 3109 3107 3105 3107 3111 3114 3117 3117 3114 3114 3116 3117 3117 3118 3119 3120 3121 3123 3124 3123 3126 3128 3128 3129 3127 3125 3127 3130 3133 3135 3137 3139 3140 3141 3140 3138 3137 3135 3135 3136 3139 3142 3143 3145 3147 3147 3149 3150 3152 3154 3155 3156 3158 3159 3159 3160 3161 3162 3163 3164 3165 3166 3167 3168 3169
3118 3118 3117 3117 3117 3116 3116 3115 3114 3114 3113 3112 3112 3112 3111 3110 3110 3108 3105 3102 3103 3104 3102 3103 3104 3101 3102 3106 3108 3112 3114 3114 3113 3113 3114 3116 3116 3117 3119 3119 3120 3121 3122 3125 3126 3126 3124 3122 3122 3126 3129 3131 3133 3135 3137 3138 3138 3138 3137 3136 3133 3133 3135 3138 3140 3142 3143 3144 3146 3147 3148 3150 3152 3153 3154 3156 3157 3158 3158 3160 3160 3162 3163 3164 3164 3165 3167 3168
3115 3114 3114 3114 3114 3114 3113 3113 3113 3112 3111 3110 3110 3110 3108 3108 3108 3106 3103 3099 3097 3100 3099 3098 3099 3098 3099 3102 3105 3107 3107 3109 3111 3111 3112 3112 3114 3115 3116 3117 3118 3120 3121 3121 3122 3121 3119 3118 3121 3125 3127 3129 3131 3132 3134 3135 3136 3136 3135 3134 3132 3132 3133 3134 3138 3139 3140 3142 3144 3145 3147 3147 3149 3151 3151 3153 3155 3156 3157 3158 3159 3160 3161 3162 3163 3164 3165 3166
3112 3111 3111 3111 3111 3111 3110 3111 3111 3110 3109 3108 3107 3108 3107 3107 3106 3104 3101 3097 3093 3094 3096 3095 3095 3095 3096 3098 3102 3103 3102 3104 3108 3110 3110 3110 3111 3113 3113 3116 3117 3117 3118 3118 3119 3118 3116 3117 3121 3123 3124 3126 3128 3129 3131 3131 3132 3132 3132 3132 3131 3131 3130 3131 3135 3137 3137 3139 3142 3144 3145 3145 3146 3148 3148 3149 3152 3154 3155 3156 3157 3158 3159 3160 3162 3162 3163 3164
3109 3108 3108 3108 3108 3108 3107 3107 3109 3108 3107 3107 3105 3105 3106 3105 3105 3103 3100 3096 3090 3089 3092 3091 3090 3091 3093 3096 3097 3098 3100 3102 3103 3106 3108 3107 3108 3110 3111 3113 3114 3114 3115 3116 3117 3116 3115 3117 3119 3120 3121 3123 3124 3125 3126 3128 3128 3129 3129 3129 3130 3130 3129 3129 3132 3134 3134 3136 3139 3142 3142 3141 3143 3144 3145 3146 3147 3150 3153 3154 3155 3156 3157 3158 3159 3160 3160 3161
3106 3105 3105 3105 3104 3105 3105 3104 3105 3106 3104 3104 3103 3104 3104 3104 3104 3102 3100 3096 3088 3086 3087 3086 3087 3087 3089 3091 3092 3096 3100 3098 3098 3102 3105 3105 3106 3108 3109 3110 3111 3111 3113 3115 3115 3113 3112 3115 3117 3117 3118 3120 3121 3121 3123 3125 3126 3124 3125 3128 3129 3128 3127 3128 3130 3130 3130 3132 3137 3139 3139 3138 3140 3141 3142 3144 3145 3147 3150 3152 3153 3154 3155 3155 3156 3158 3158 3159
3103 3102 3101 3102 3101 3101 3103 3102 3102 3103 3101 3101 3101 3103 3103 3103 3103 3102 3101 3098 3087 3082 3082 3082 3083 3084 3086 3088 3089 3093 3096 3094 3095 3097 3100 3102 3103 3105 3106 3107 3108 3108 3111 3113 3111 3108 3109 3112 3113 3114 3115 3116 3116 3116 3119 3122 3122 3120 3123 3126 3127 3127 3126 3126 3127 3127 3126 3129 3133 3135 3136 3136 3136 3137 3139 3141 3142 3144 3146 3148 3150 3152 3152 3153 3154 3155 3156 3157
3100 3098 3097 3099 3098 3096 3099 3100 3098 3099 3099 3098 3100 3101 3100 3101 3103 3102 3104 3100 3086 3079 3079 3079 3080 3081 3084 3087 3086 3088 3090 3091 3093 3091 3094 3099 3100 3102 3102 3103 3105 3106 3108 3109 3105 3105 3107 3108 3109 3111 3112 3112 3112 3113 3116 3119 3119 3119 3123 3124 3124 3125 3125 3124 3124 3122 3123 3126 3126 3128 3132 3132 3132 3134 3137 3138 3138 3139 3141 3144 3146 3148 3150 3151 3152 3153 3154 3156
3096 3094 3093 3095 3095 3093 3095 3096 3095 3096 3096 3097 3098 3099 3099 3101 3101 3101 3105 3097 3081 3077 3078 3077 3079 3080 3082 3085 3084 3085 3087 3089 3091 3089 3092 3096 3097 3099 3099 3099 3103 3104 3105 3105 3103 3103 3105 3105 3107 3108 3108 3108 3109 3112 3115 3116 3116 3119 3122 3122 3122 3122 3123 3123 3122 3121 3121 3120 3118 3122 3127 3128 3129 3131 3133 3134 3134 3135 3137 3139 3141 3144 3147 3148 3149 3151 3153 3154
3092 3091 3089 3090 3092 3091 3091 3092 3091 3092 3093 3094 3096 3097 3097 3099 3099 3101 3101 3089 3078 3077 3076 3074 3077 3078 3080 3082 3082 3082 3085 3086 3089 3089 3090 3093 3094 3096 3098 3099 3101 3102 3102 3102 3101 3101 3102 3103 3104 3104 3104 3106 3108 3110 3112 3113 3115 3118 3120 3120 3121 3119 3119 3119 3119 3121 3119 3113 3114 3118 3121 3124 3125 3126 3128 3129 3130 3132 3134 3136 3138 3140 3143 3145 3146 3149 3151 3152
3088 3088 3086 3086 3087 3087 3089 3089 3087 3088 3091 3091 3093 3095 3095 3096 3098 3097 3088 3079 3077 3077 3073 3073 3076 3076 3076 3079 3079 3080 3082 3084 3087 3087 3087 3090 3092 3092 3095 3097 3097 3098 3098 3097 3098 3099 3100 3099 3099 3100 3101 3104 3106 3108 3109 3111 3113 3115 3116 3117 3118 3117 3117 3115 3114 3116 3114 3111 3114 3117 3118 3118 3117 3118 3123 3125 3127 3129 3131 3132 3134 3136 3139 3141 3143 3146 3148 3149
3084 3084 3083 3082 3082 3083 3086 3086 3083 3086 3088 3088 3091 3092 3092 3095 3092 3084 3078 3077 3076 3072 3070 3072 3074 3073 3074 3075 3076 3077 3079 3081 3083 3084 3084 3086 3086 3087 3088 3089 3090 3092 3092 3092 3094 3095 3095 3095 3095 3097 3098 3101 3102 3104 3106 3107 3109 3111 3112 3114 3114 3114 3115 3114 3112 3110 3108 3109 3113 3115 3114 3112 3109 3113 3118 3121 3123 3125 3126 3128 3130 3132 3135 3137 3140 3142 3144 3145
3080 3080 3080 3079 3077 3079 3082 3082 3081 3083 3084 3086 3089 3088 3092 3091 3078 3070 3074 3075 3072 3068 3069 3071 3070 3072 3073 3072 3073 3075 3076 3077 3079 3080 3081 3083 3083 3083 3083 3085 3087 3087 3086 3089 3090 3090 3090 3091 3093 3093 3094 3096 3097 3099 3100 3101 3104 3106 3107 3109 3109 3109 3112 3112 3111 3106 3103 3104 3107 3111 3111 3106 3104 3109 3113 3116 3119 3121 3123 3125 3127 3129 3132 3134 3136 3138 3139 3141
3076 3075 3075 3076 3075 3075 3077 3079 3079 3080 3081 3083 3084 3086 3088 3078 3065 3066 3072 3070 3069 3068 3069 3070 3070 3070 3070 3069 3070 3071 3072 3074 3076 3077 3078 3079 3079 3078 3079 3081 3083 3084 3085 3086 3085 3085 3085 3084 3085 3088 3090 3092 3093 3094 3096 3099 3102 3103 3105 3107 3105 3104 3106 3107 3106 3104 3103 3103 3104 3107 3106 3102 3102 3105 3107 3112 3115 3118 3120 3122 3124 3127 3128 3131 3133 3135 3136 3138
3072 3071 3070 3072 3072 3071 3072 3075 3076 3077 3078 3079 3080 3081 3075 3063 3061 3067 3068 3067 3069 3067 3066 3068 3069 3068 3066 3067 3068 3068 3069 3069 3071 3074 3073 3073 3073 3073 3074 3075 3077 3080 3082 3081 3080 3081 3080 3078 3080 3085 3087 3088 3089 3091 3096 3099 3098 3099 3102 3103 3100 3101 3104 3103 3102 3102 3103 3102 3101 3101 3099 3099 3102 3103 3105 3109 3111 3114 3117 3119 3122 3123 3125 3128 3130 3132 3133 3134
3068 3067 3067 3068 3068 3068 3068 3069 3072 3073 3073 3075 3076 3070 3060 3056 3062 3065 3065 3067 3069 3067 3066 3066 3065 3065 3062 3062 3063 3064 3065 3065 3067 3068 3067 3068 3068 3068 3069 3070 3072 3074 3076 3077 3077 3076 3076 3075 3078 3081 3082 3084 3087 3090 3094 3095 3094 3095 3096 3095 3095 3100 3103 3101 3100 3101 3102 3100 3096 3096 3094 3096 3099 3099 3102 3106 3108 3111 3113 3116 3118 3120 3122 3124 3125 3126 3128 3130
3063 3063 3064 3065 3063 3063 3064 3065 3068 3069 3069 3071 3067 3057 3052 3056 3060 3061 3063 3065 3066 3066 3066 3062 3060 3060 3059 3057 3057 3059 3061 3062 3062 3062 3061 3062 3062 3063 3065 3067 3068 3069 3071 3074 3074 3073 3073 3072 3073 3076 3077 3080 3085 3088 3090 3091 3091 3090 3089 3091 3096 3099 3100 3099 3097 3097 3099 3097 3093 3092 3092 3094 3095 3094 3097 3102 3104 3108 3109 3112 3115 3117 3119 3121 3121 3122 3124 3126
3058 3057 3061 3062 3058 3058 3060 3061 3063 3064 3065 3064 3056 3049 3051 3054 3055 3058 3060 3061 3062 3063 3062 3058 3056 3056 3055 3053 3053 3054 3056 3056 3056 3057 3057 3056 3055 3056 3060 3062 3064 3065 3068 3071 3072 3072 3072 3070 3069 3071 3073 3076 3081 3085 3085 3086 3087 3085 3085 3089 3092 3091 3091 3094 3092 3092 3095 3094 3091 3090 3091 3092 3091 3090 3093 3096 3099 3103 3106 3108 3112 3114 3116 3119 3119 3119 3122 3125
3053 3053 3057 3059 3057 3057 3057 3057 3059 3060 3059 3056 3050 3046 3048 3049 3050 3054 3056 3056 3058 3058 3056 3054 3054 3052 3051 3050 3050 3050 3051 3050 3051 3053 3052 3051 3051 3052 3055 3058 3059 3061 3064 3067 3068 3069 3071 3069 3066 3067 3070 3073 3076 3077 3076 3077 3081 3084 3084 3085 3086 3085 3087 3090 3089 3089 3092 3091 3089 3089 3088 3087 3087 3089 3091 3092 3094 3098 3102 3106 3109 3111 3114 3116 3116 3116 3120 3122
3050 3050 3053 3057 3058 3056 3054 3054 3055 3055 3052 3048 3045 3045 3046 3047 3048 3050 3052 3053 3052 3051 3051 3051 3051 3050 3048 3047 3047 3047 3046 3046 3047 3048 3047 3047 3048 3048 3051 3053 3055 3057 3060 3063 3065 3067 3068 3067 3065 3064 3066 3067 3066 3066 3068 3073 3077 3081 3081 3080 3080 3082 3085 3087 3085 3085 3088 3088 3087 3087 3085 3082 3085 3088 3088 3090 3091 3093 3098 3103 3106 3109 3111 3113 3113 3113 3115 3116
3047 3048 3050 3055 3057 3055 3052 3052 3051 3050 3048 3044 3043 3043 3044 3045 3046 3047 3049 3050 3049 3047 3047 3047 3047 3047 3045 3045 3045 3044 3043 3041 3041 3042 3043 3043 3044 3044 3046 3048 3051 3054 3056 3058 3060 3062 3064 3064 3064 3062 3061 3060 3060 3062 3067 3072 3075 3076 3077 3077 3078 3078 3080 3082 3080 3079 3083 3084 3084 3085 3082 3080 3083 3086 3086 3089 3090 3091 3095 3099 3102 3106 3108 3109 3110 3111 3112 3113
3043 3043 3047 3051 3051 3050 3050 3048 3047 3047 3044 3041 3040 3041 3041 3042 3042 3042 3044 3046 3046 3044 3044 3043 3042 3042 3042 3041 3041 3041 3040 3038 3036 3036 3037 3038 3040 3041 3043 3046 3048 3050 3052 3052 3054 3058 3061 3062 3061 3060 3057 3056 3059 3062 3065 3068 3071 3073 3073 3074 3076 3076 3075 3074 3074 3075 3079 3080 3082 3082 3079 3078 3081 3083 3084 3087 3089 3090 3093 3096 3098 3102 3105 3106 3108 3109 3110 3112
3037 3036 3041 3045 3045 3044 3045 3043 3042 3042 3039 3038 3038 3038 3039 3039 3038 3038 3040 3041 3041 3041 3040 3039 3038 3038 3039 3038 3038 3038 3038 3035 3033 3032 3032 3033 3036 3039 3041 3043 3044 3046 3047 3048 3050 3054 3057 3057 3057 3057 3057 3057 3057 3060 3062 3065 3068 3069 3068 3069 3071 3071 3071 3070 3071 3074 3076 3075 3076 3077 3075 3077 3080 3082 3083 3085 3087 3088 3091 3094 3096 3099 3101 3102 3104 3106 3106 3109
3032 3030 3034 3039 3041 3040 3038 3036 3037 3036 3035 3035 3035 3034 3035 3035 3034 3035 3036 3036 3037 3037 3036 3034 3035 3036 3036 3036 3036 3035 3035 3034 3031 3029 3029 3029 3030 3034 3038 3039 3041 3042 3043 3044 3046 3048 3050 3051 3053 3054 3054 3055 3053 3052 3055 3059 3061 3062 3063 3065 3066 3068 3070 3070 3070 3072 3070 3069 3071 3071 3070 3074 3078 3081 3082 3084 3085 3087 3089 3092 3095 3096 3098 3100 3101 3103 3103 3105
3029 3027 3029 3033 3035 3035 3033 3032 3033 3033 3032 3032 3031 3030 3029 3028 3028 3030 3032 3032 3032 3033 3032 3031 3032 3033 3033 3034 3033 3032 3032 3032 3030 3029 3029 3027 3027 3029 3033 3034 3036 3039 3041 3042 3043 3044 3045 3046 3049 3048 3046 3048 3047 3044 3047 3053 3056 3058 3060 3062 3063 3065 3067 3068 3069 3068 3065 3066 3069 3068 3067 3070 3076 3079 3081 3083 3084 3085 3088 3090 3092 3094 3096 3098 3099 3099 3101 3103
3028 3026 3026 3028 3030 3031 3030 3030 3030 3029 3029 3029 3026 3024 3023 3021 3022 3023 3024 3025 3028 3030 3029 3028 3029 3029 3029 3030 3030 3029 3028 3029 3029 3028 3026 3026 3025 3026 3028 3030 3032 3035 3038 3039 3040 3041 3042 3042 3044 3044 3042 3043 3044 3044 3047 3050 3052 3053 3056 3058 3060 3061 3063 3065 3065 3063 3063 3066 3066 3066 3066 3069 3072 3075 3078 3081 3082 3083 3086 3088 3089 3091 3093 3096 3097 3097 3099 3102
3027 3025 3025 3025 3025 3025 3025 3026 3026 3026 3025 3023 3020 3018 3018 3018 3018 3018 3018 3019 3021 3023 3021 3022 3025 3026 3026 3026 3027 3026 3026 3027 3028 3026 3025 3025 3025 3025 3026 3027 3028 3032 3035 3035 3036 3038 3038 3037 3038 3041 3042 3043 3044 3045 3046 3047 3048 3050 3052 3054 3057 3058 3059 3060 3060 3060 3063 3064 3062 3064 3068 3068 3070 3072 3074 3077 3080 3081 3083 3085 3087 3089 3091 3093 3096 3097 3099 3100
3024 3022 3023 3024 3022 3021 3021 3021 3021 3021 3020 3018 3016 3015 3015 3015 3015 3015 3014 3014 3014 3014 3012 3011 3015 3018 3021 3025 3025 3024 3025 3025 3024 3023 3023 3023 3024 3023 3023 3024 3025 3028 3032 3034 3034 3035 3035 3034 3035 3037 3040 3042 3043 3044 3044 3044 3045 3047 3048 3050 3053 3055 3056 3055 3055 3058 3062 3060 3059 3064 3067 3067 3070 3071 3071 3074 3078 3080 3081 3083 3085 3088 3090 3092 3094 3096 3097 3098
3022 3020 3020 3020 3018 3017 3017 3016 3016 3016 3016 3015 3014 3013 3013 3012 3012 3013 3013 3011 3009 3010 3010 3007 3004 3004 3008 3013 3017 3019 3022 3023 3023 3022 3022 3023 3023 3022 3020 3021 3022 3024 3028 3031 3033 3034 3033 3032 3033 3035 3036 3038 3040 3042 3042 3042 3043 3044 3044 3045 3048 3050 3052 3053 3054 3056 3058 3057 3059 3063 3064 3065 3069 3071 3070 3072 3075 3078 3080 3082 3083 3085 3088 3090 3092 3093 3094 3096
3019 3018 3018 3016 3014 3013 3013 3013 3013 3013 3013 3013 3012 3011 3011 3010 3010 3010 3011 3010 3007 3005 3007 3006 3002 3002 3004 3006 3009 3012 3012 3011 3011 3013 3016 3018 3019 3020 3019 3018 3019 3021 3025 3029 3031 3032 3031 3030 3032 3034 3034 3034 3036 3038 3040 3040 3041 3042 3041 3042 3044 3045 3047 3049 3051 3053 3054 3054 3057 3060 3061 3062 3066 3070 3071 3071 3072 3074 3076 3079 3082 3083 3084 3087 3089 3090 3091 3093
3017 3016 3016 3013 3010 3010 3011 3011 3011 3010 3009 3009 3009 3010 3010 3008 3008 3008 3008 3008 3006 3003 3004 3005 3003 3004 3005 3005 3005 3004 3002 3000 2999 3001 3005 3007 3009 3012 3015 3016 3016 3017 3021 3026 3028 3028 3029 3029 3031 3033 3033 3031 3032 3035 3036 3038 3041 3041 3039 3039 3041 3041 3042 3043 3046 3049 3052 3053 3054 3056 3057 3059 3064 3067 3069 3070 3071 3071 3072 3074 3078 3080 3082 3083 3085 3087 3089 3090
3014 3013 3014 3011 3007 3007 3008 3008 3008 3007 3006 3007 3007 3008 3007 3007 3007 3007 3005 3005 3004 3003 3004 3004 3003 3003 3002 3000 3000 3000 2999 2998 2996 2996 2998 3000 3001 3003 3007 3011 3014 3014 3016 3021 3024 3025 3027 3028 3029 3031 3030 3029 3031 3033 3034 3037 3037 3033 3031 3035 3038 3039 3040 3041 3043 3046 3049 3051 3052 3053 3054 3057 3062 3064 3065 3067 3068 3069 3070 3071 3073 3076 3079 3080 3082 3084 3085 3086